User: anonymous   Login
Location: Unspecified
(0.0000°N, 0.0000°E)
Time: 09:23:44
(UTC+02:00)
Language:

Cosmos 1953 Rocket - Orbit

View from above orbital plane
View from above orbital plane
View from above satellite
View from above satellite

Ground track
Ground track

The orbit data is extracted from the following two-line orbital elements,

1 19211U 88050B   15216.22086072  .00000197  00000-0  21327-4 0  9993
2 19211 082.5281 121.1026 0021244 204.0130 317.0590 14.82778871465573
Epoch (UTC): 04 August 2015 05:18:02
Eccentricity: 0.0021244
inclination: 82.5281°
perigee height: 606 km
apogee height: 635 km
right ascension of ascending node: 121.1026°
argument of perigee: 204.0130°
revolutions per day: 14.82778871
mean anomaly at epoch: 317.0590°
orbit number at epoch: 46557

The dashed part of the orbit path shows where the satellite is in the earth's shadow,  

DLR